Location: doobydoo
(53.3403°N, 2.6908°W)
Time: 20:22:31
(UTC+00:00)

ISS - Pass Details

Date: 22 November 2021
Orbit: 413 x 422 km, 51.6° (Epoch: 18 January)

Event Time Altitude Azimuth Distance (km) Brightness Sun altitude
Rises 18:09:44 0° 222° (SW) 2,376 0.9 -18.0°
Reaches altitude 10° 18:12:02 10° 210° (SSW) 1,512 -0.4 -18.4°
Enters shadow 18:14:45 26° 157° (SSE) 874 -2.3 -18.8°
